Weather History for Guthrie, OK

Change the Weather History Date:

Saturday, January 19, 2013

  Actual Average Record
Temperature  
Mean Temperature 52 °F -  
Max Temperature 64 °F 47 °F 74 °F (1951)
Min Temperature 37 °F 25 °F -12 °F (1984)
Degree Days  
Heating Degree Days 14    
Growing Degree Days 2 (Base 50)    
Moisture  
Dew Point 32 °F    
Average Humidity 50    
Maximum Humidity 73    
Minimum Humidity 30    
Precipitation  
Precipitation 0.00 in - - ()
Sea Level Pressure  
Sea Level Pressure 30.14 in    
Wind  
Wind Speed 9 mph (SSW)    
Max Wind Speed 13 mph    
Max Gust Speed -    
Visibility 10 miles    
Events Rain    
Averages and records for this station are not official NWS values.
T = Trace of Precipitation, MM = Missing Value Source: NWS Daily Summary

Daily Weather History Graph

Daily Weather History Graph

Search for Another Location

Airport:

Trip Planner

Search our weather history database for the weather conditions in past years. The results will help you decide how hot, cold, wet, or windy it might be!

Date:

Astronomy

Jan. 19, 2013 Rise Set
Actual Time 7:37 AM CST 5:43 PM CST
Civil Twilight 7:10 AM CST 6:11 PM CST
Nautical Twilight 6:38 AM CST 6:42 PM CST
Astronomical Twilight 6:08 AM CST 7:13 PM CST
Moon 12:08 PM CST (1/19) 1:16 AM CST (1/19)
Length of Visible Light 11h 01m
Length of Day
10h 06m
First Quarter, 57% of the Moon is Illuminated
Jan 19
First Quarter
Jan 26
Full
Feb 3
Last Quarter
Feb 10
New
Feb 17
First Quarter

Hourly Weather History & Observations

Time (CST) Temp. Windchill Dew Point Humidity Pressure Visibility Wind Dir Wind Speed Gust Speed Precip Events Conditions
12:53 AM 46.9 °F - 30.0 °F 52% 30.14 in 10.0 mi South 12.7 mph - N/A   Clear
1:53 AM 46.9 °F - 30.9 °F 54% 30.14 in 10.0 mi SSW 11.5 mph - N/A   Clear
2:53 AM 46.9 °F - 30.9 °F 54% 30.13 in 10.0 mi South 11.5 mph - N/A   Clear
3:53 AM 46.9 °F - 30.9 °F 54% 30.11 in 10.0 mi SSW 11.5 mph - N/A   Clear
4:53 AM 46.0 °F 40.6 °F 30.9 °F 56% 30.11 in 10.0 mi South 11.5 mph - N/A   Clear
5:53 AM 45.0 °F 40.1 °F 30.9 °F 58% 30.10 in 10.0 mi South 9.2 mph - N/A   Clear
6:53 AM 44.1 °F 39.5 °F 30.9 °F 60% 30.10 in 10.0 mi SSW 8.1 mph - N/A   Clear
7:53 AM 44.1 °F 38.6 °F 30.9 °F 60% 30.11 in 10.0 mi South 10.4 mph - N/A   Clear
8:53 AM 48.0 °F - 32.0 °F 54% 30.13 in 10.0 mi SW 6.9 mph - N/A   Clear
9:53 AM 52.0 °F - 32.0 °F 47% 30.15 in 10.0 mi SSW 12.7 mph - 0.00 in Rain Light Rain
10:53 AM 55.0 °F - 32.0 °F 42% 30.17 in 10.0 mi WSW 9.2 mph - 0.00 in   Clear
11:53 AM 57.9 °F - 33.1 °F 39% 30.13 in 10.0 mi SW 10.4 mph - N/A   Clear
12:53 PM 60.1 °F - 33.1 °F 36% 30.12 in 10.0 mi West 8.1 mph - N/A   Clear
1:53 PM 61.0 °F - 32.0 °F 34% 30.09 in 10.0 mi South 6.9 mph - N/A   Clear
2:53 PM 64.0 °F - 33.1 °F 31% 30.09 in 10.0 mi SSW 6.9 mph - N/A   Clear
3:53 PM 64.9 °F - 33.1 °F 31% 30.10 in 10.0 mi SW 6.9 mph - N/A   Clear
4:53 PM 64.0 °F - 32.0 °F 30% 30.12 in 10.0 mi West 5.8 mph - N/A   Clear
5:53 PM 55.9 °F - 32.0 °F 40% 30.14 in 10.0 mi WNW 4.6 mph - N/A   Clear
6:53 PM 54.0 °F - 32.0 °F 43% 30.17 in 10.0 mi Calm Calm - N/A   Clear
7:53 PM 44.1 °F - 30.9 °F 60% 30.19 in 10.0 mi Calm Calm - N/A   Clear
8:53 PM 46.0 °F - 32.0 °F 58% 30.21 in 10.0 mi Calm Calm - N/A   Clear
9:53 PM 39.0 °F 36.8 °F 30.0 °F 70% 30.23 in 10.0 mi SSW 3.5 mph - N/A   Clear
10:53 PM 41.0 °F - 32.0 °F 70% 30.23 in 10.0 mi Calm Calm - N/A   Clear
11:53 PM 37.9 °F 34.4 °F 30.0 °F 73% 30.23 in 10.0 mi NNE 4.6 mph - N/A   Clear